KA0TMW Weather Reports


time (UTC)temp
C
wind
direction
speed
KPH
gust
KPH
rain 1hr
cm
rain 24hr
cm
rain mn
cm
humidity
%
barometer
mb
20260906173109 25 212 8.0 16.1 0.00 0.00 0.00 70 1021.1
20260906171559 25 212 4.8 14.5 0.00 0.00 0.00 72 1021.2
20260906170127 24 212 3.2 11.3 0.00 0.00 0.00 76 1021.4
20260906164601 23 212 4.8 12.9 0.00 0.00 0.00 77 1021.5
20260906163101 23 212 3.2 8.0 0.00 0.00 0.00 79 1021.4
20260906161554 22 212 4.8 11.3 0.00 0.00 0.00 79 1021.5
20260906160053 22 212 4.8 11.3 0.00 0.00 0.00 81 1021.4
20260906154559 21 212 4.8 11.3 0.00 0.00 0.00 82 1021.4
20260906153055 20 212 6.4 12.9 0.00 0.00 0.00 84 1021.3
20260906151613 20 212 4.8 14.5 0.00 0.00 0.00 83 1021.5
20260906150105 20 212 11.3 17.7 0.00 0.00 0.00 86 1021.1
20260906144555 20 212 11.3 17.7 0.00 0.00 0.00 85 1021.3
20260906143119 19 212 11.3 16.1 0.00 0.00 0.00 87 1021.2
20260906141600 18 212 8.0 12.9 0.00 0.00 0.00 88 1021.3
20260906140055 18 212 8.0 12.9 0.00 0.00 0.00 90 1021.5
20260906134600 17 212 6.4 12.9 0.00 0.00 0.00 92 1021.6
20260906133105 17 212 6.4 11.3 0.00 0.00 0.00 95 1021.6
20260906131559 15 212 4.8 8.0 0.00 0.00 0.00 98 1021.8
20260906130055 14 212 4.8 9.7 0.00 0.00 0.00 98 1021.6
20260906124605 13 0 0.0 4.8 0.00 0.03 0.00 97 1021.6
20260906123137 12 212 3.2 6.4 0.00 0.03 0.00 97 1021.1
20260906121557 12 212 3.2 8.0 0.00 0.03 0.00 96 1021.1
20260906120112 12 212 1.6 6.4 0.00 0.03 0.00 96 1020.8
20260906114611 12 212 3.2 8.0 0.00 0.03 0.00 96 1020.8
20260906113101 12 212 4.8 6.4 0.00 0.03 0.00 96 1020.9
20260906111557 12 212 4.8 8.0 0.00 0.03 0.00 96 1020.7
20260906110105 12 0 0.0 6.4 0.00 0.03 0.00 96 1020.6
20260906104600 12 212 1.6 8.0 0.00 0.03 0.00 96 1020.3
20260906103106 12 212 3.2 8.0 0.00 0.03 0.00 96 1020.2
20260906101601 12 212 3.2 8.0 0.00 0.03 0.00 96 1020.3
20260906100100 13 212 3.2 9.7 0.00 0.03 0.00 96 1020.2
20260906094607 13 212 6.4 9.7 0.00 0.05 0.00 96 1020.2
20260906093105 13 212 6.4 11.3 0.00 0.05 0.00 96 1020.2
20260906091606 13 212 6.4 11.3 0.00 0.05 0.00 96 1020.0
20260906090054 13 212 6.4 11.3 0.00 0.05 0.00 96 1020.2
20260906084559 13 212 4.8 9.7 0.00 0.05 0.00 96 1020.2
20260906083105 13 212 8.0 16.1 0.00 0.05 0.00 96 1020.0
20260906081603 13 212 6.4 9.7 0.00 0.05 0.00 96 1020.2
20260906074607 13 212 3.2 6.4 0.00 0.05 0.00 95 1020.5
20260906073057 14 212 3.2 8.0 0.00 0.05 0.00 96 1020.7
20260906071556 14 212 4.8 11.3 0.00 0.05 0.00 96 1020.8
20260906070104 13 212 3.2 6.4 0.00 0.05 0.00 95 1020.5
20260906064554 14 212 1.6 6.4 0.00 0.05 0.00 96 1020.3
20260906063058 14 212 1.6 8.0 0.00 0.05 0.00 95 1020.4
20260906061604 15 212 3.2 8.0 0.00 0.05 0.00 95 1020.3
20260906054605 15 0 0.0 4.8 0.00 0.05 0.00 95 1020.5
20260906053108 15 212 1.6 8.0 0.00 0.05 0.00 95 1020.6
20260906051605 15 212 6.4 9.7 0.00 0.05 0.00 95 1020.3
20260906050108 15 212 4.8 9.7 0.00 0.05 0.00 95 1020.4
20260906044600 15 212 3.2 6.4 0.00 0.05 0.05 95 1020.7
20260906043103 16 212 0.0 6.4 0.00 0.05 0.05 94 1020.6
20260906041603 16 0 1.6 3.2 0.00 0.05 0.05 94 1020.9
20260906040057 16 0 0.0 4.8 0.00 0.05 0.05 93 1020.8
20260906034606 16 0 0.0 4.8 0.00 0.05 0.05 93 1020.7
20260906033111 16 212 3.2 9.7 0.00 0.05 0.05 93 1020.5
20260906031603 16 212 6.4 11.3 0.00 0.05 0.05 93 1020.3
20260906030054 16 212 6.4 9.7 0.00 0.05 0.05 93 1020.3
20260906024601 16 212 3.2 11.3 0.00 0.05 0.05 93 1020.0
20260906023056 16 212 8.0 12.9 0.00 0.05 0.05 93 1019.7
20260906021558 16 212 8.0 17.7 0.00 0.05 0.05 93 1019.5
20260906020108 16 212 6.4 16.1 0.00 0.05 0.05 93 1019.5
20260906014555 17 212 4.8 14.5 0.00 0.05 0.05 93 1019.2
20260906013106 17 212 8.0 14.5 0.00 0.05 0.05 93 1018.9
20260906011604 17 212 8.0 16.1 0.00 0.05 0.05 93 1018.8
20260906004604 17 212 3.2 11.3 0.00 0.05 0.05 93 1019.0
20260906003103 17 212 6.4 14.5 0.00 0.05 0.05 92 1018.7
20260906001604 17 212 9.7 14.5 0.00 0.05 0.05 92 1018.9
20260906000106 17 212 8.0 20.9 0.00 0.05 0.05 92 1019.0
20260905234606 17 212 9.7 14.5 0.00 0.05 0.05 92 1019.1
20260905233103 17 212 8.0 16.1 0.00 0.05 0.05 91 1019.5
20260905231555 18 212 16.1 20.9 0.00 0.05 0.05 91 1019.2
20260905230103 18 212 8.0 14.5 0.00 0.05 0.05 92 1019.7
20260905224556 18 212 9.7 16.1 0.00 0.05 0.05 91 1019.6
20260905223103 18 212 6.4 14.5 0.00 0.05 0.05 91 1019.6
20260905221604 18 212 9.7 17.7 0.00 0.05 0.05 91 1019.8
20260905220107 18 212 6.4 16.1 0.00 0.05 0.05 90 1019.8
20260905214604 18 212 9.7 14.5 0.00 0.05 0.05 90 1019.6
20260905213105 19 212 6.4 14.5 0.00 0.05 0.05 90 1020.1
20260905211559 19 212 6.4 11.3 0.00 0.05 0.05 91 1020.1
20260905210120 19 212 3.2 12.9 0.00 0.05 0.05 91 1020.5
20260905204603 19 212 6.4 14.5 0.00 0.05 0.05 90 1020.2
20260905203055 20 212 6.4 11.3 0.00 0.05 0.05 90 1020.5
20260905201556 20 212 1.6 8.0 0.00 0.05 0.05 91 1020.3
20260905200112 19 212 0.0 8.0 0.00 0.05 0.05 92 1020.5
20260905194609 19 212 4.8 11.3 0.00 0.05 0.05 91 1020.4
20260905193052 19 212 4.8 11.3 0.00 0.05 0.05 92 1020.3
20260905191557 19 212 6.4 12.9 0.00 0.05 0.05 92 1020.4
20260905190052 19 212 6.4 14.5 0.00 0.05 0.05 92 1020.3
20260905184617 19 212 4.8 12.9 0.00 0.05 0.05 92 1020.3
20260905183054 19 212 8.0 12.9 0.00 0.05 0.05 92 1020.4
20260905181600 19 212 4.8 16.1 0.00 0.05 0.05 91 1020.4
20260905180053 19 212 6.4 14.5 0.00 0.05 0.05 92 1020.4
20260905174608 19 212 1.6 8.0 0.00 0.05 0.05 93 1020.5